Regional Weather Roundup
Issued by NWS

Home | Current Version | Previous Version | Graphics & Text | Print | Product List | Glossary On
Versions: 1 2 3 4 5 6 7 8 9 10 11 12 13 14 15 16 17 18 19 20 21 22 23 24 25 26 27 28 29 30 31 32 33 34 35 36 37 38 39 40 41 42 43 44 45 46 47 48 49 50
000
ASUS43 KIND 282209
RWRIN

WEATHER ROUNDUP FOR INDIANA
NATIONAL WEATHER SERVICE INDIANAPOLIS IN
600 PM EDT FRI APR 28 2017

NOTE: "FAIR" INDICATES FEW OR NO CLOUDS BELOW 12,000 FEET WITH NO
SIGNIFICANT WEATHER AND/OR OBSTRUCTIONS TO VISIBILITY.

* - STATION DOES NOT REPORT WEATHER SUCH AS PRECIPITATION OR FOG.

+ - STATION NOT QUALITY CONTROLLED BY THE NATIONAL WEATHER SERVICE.
    USE DATA WITH CAUTION...ESPECIALLY DEWPOINT AND RELATIVE
    HUMIDITY OBSERVATIONS.

INZ001>003-010>013-019-020-282300-
NORTHWEST INDIANA

CITY           SKY/WX    TMP DP  RH WIND       PRES   REMARKS
GARY /AIRPORT/ PTSUNNY   54  45  71 VRB5      29.85F
KNOX *+        CLOUDY    59  30  33 S13       29.84F
LA PORTE +     CLOUDY    60  47  61 SE12G17   29.86R
MICHIGAN CITY+ CLOUDY    61  45  55 SE6       29.85R
MONTICELLO +   LGT RAIN  54  51  89 SE10      29.82F
RENSSELAER +   CLOUDY    57  52  82 SE8       29.84F
VALPARAISO     MOSUNNY   61  49  64 S9        29.84S

$$

LMZ046-743>745-282300-
SOUTHERN LAKE MICHIGAN

STATION/POSITION TIME  TEMP    WIND        PRES    WAVE
                       AIR SEA DIR/SP/G            HT
                 (UTC) (F)     (DEG/KT/KT) (MB)    (FT)
BURNS HARBOR     2140   62     140/  8/ 13 1011.2F
MICHIGAN CITY    2140   61     120/  6/  8   N/A
5NW MICH CITY    2200   46 47                N/A     1

$$

INZ004-005-014>016-021>024-282300-
NORTH CENTRAL INDIANA

CITY           SKY/WX    TMP DP  RH WIND       PRES   REMARKS
ELKHART        PTSUNNY   61  45  55 S9        29.85F
GOSHEN         CLOUDY    59  47  64 SE12      29.88F
LOGANSPORT +   CLOUDY    54  50  87 SE15      29.86F
PERU/GRISSOM   LGT RAIN  55  55 100 SE15      29.86F
ROCHESTER +    CLOUDY    55  52  88 SE9       29.87F
SOUTH BEND     CLOUDY    60  46  59 SE13      29.86F
WARSAW +       LGT RAIN  54  50  87 SE6       29.87F

$$

INZ006>009-017-018-025>027-282300-
NORTHEAST INDIANA

CITY           SKY/WX    TMP DP  RH WIND       PRES   REMARKS
ANGOLA *+      CLOUDY    57  46  67 SE7       29.91F
AUBURN +       RAIN      54  50  87 SE6       29.95R
FORT WAYNE     LGT RAIN  55  51  86 SE7       29.95R
HUNTINGTON +   RAIN      54  52  95 SE7       29.91F
KENDALLVILLE + LGT RAIN  56  49  79 S9        29.91S

$$

INZ028-029-035-036-043>045-051>053-282300-
WEST CENTRAL INDIANA

CITY           SKY/WX    TMP DP  RH WIND       PRES   REMARKS
CRAWFORDSVL +  TSTM      53  53 100 E22G31    29.78F
GREENCASTLE +  LGT RAIN  55  52  88 NE10G16   29.82F
LAFAYETTE      LGT RAIN  54  53  97 E6        29.85F
TERRE HAUTE    LGT RAIN  57  53  86 E14G26    29.80R FOG

$$

INZ030>032-037>040-046>048-054>057-064-065-282300-
CENTRAL INDIANA

CITY           SKY/WX    TMP DP  RH WIND       PRES   REMARKS
CP ATTERBURY + CLOUDY    61  55  82 N10       29.89R THUNDER
COLUMBUS       LGT RAIN  64  55  72 E6        29.83S
FISHERS *+     CLOUDY    55  54  94 NE10      29.85F
FRANKFORT +    LGT RAIN  57  54  89 SE20      29.84F
GREENWOOD *+   CLOUDY    61  55  82 E9        29.86F
INDIANAPOLIS   TSTM      59  54  83 NE13      29.84F
-EAGLE CREEK   LGT RAIN  58  52  80 NE13      29.84F
MT COMFORT *+  CLOUDY    57  54  88 NE10      29.91R
SHELBYVILLE    TSTM      63  55  75 E7        29.89R
ZIONSVILLE +   RAIN      55  51  87 E9        29.88F

$$

INZ033-034-041-042-049-050-058-059-282300-
EAST CENTRAL INDIANA

CITY           SKY/WX    TMP DP  RH WIND       PRES   REMARKS
MUNCIE         LGT RAIN  60  51  72 E3        29.97R
RICHMOND +     CLOUDY    61  52  72 E10       29.91F

$$

INZ060-061-067>069-081>083-085>088-282300-
SOUTHWEST INDIANA

CITY           SKY/WX    TMP DP  RH WIND       PRES   REMARKS
EVANSVILLE     CLOUDY    72  64  76 S10       29.79S
WASHINGTON +   CLOUDY    66  56  70 SE12      29.76F

$$

INZ062-063-066-070>080-084-089>092-282300-
SOUTH CENTRAL AND SOUTHEAST INDIANA

CITY           SKY/WX    TMP DP  RH WIND       PRES   REMARKS
BEDFORD +      CLOUDY    64  55  72 E6        29.81F
BLOOMINGTON    TSTM      59  53  80 E9        29.80F
MADISON *+     CLOUDY    70  59  68 E3        29.86F
NORTH VERNON + CLOUDY    68  55  64 E5        29.84
SEYMOUR +      CLOUDY    72  55  56 SE7       29.83S

$$




USA.gov is the U.S. government's official web portal to all federal, state and local government web resources and services.